Weather in Samsonovo

Russia / Omsk Oblast     56°58′20″N   74°21′14″E
temp.,
°C
wind,
m/s
gust,
m/s
humid.,
%
clouds,
%
prec.,
mm/h
press.,
hPa
HPBL,
m
25 january, mon
mon2500:00−37s229672 0.0 104530
03:00−36sse2397100 0.0 104385
06:00−33se3696100 0.0 1042184
09:00−31se3695100 0.0 1040231
12:00−28se4796100 0.2 1039289
15:00−26se4695100 0.1 1037325
18:00−28ese3497100 0.1 103795
21:00−31ese349794 0.0 103787
26 january, tue
tue2600:00−29se369796 0.0 1037183
03:00−28se3695100 0.0 1036250
06:00−27sse4798100 0.3 1035260
09:00−26sse4898100 0.6 1034283
12:00−23sse5998100 1.4 1032334
15:00−19sse5897100 0.6 1030382
18:00−18sse4896100 1.2 1028293
21:00−16s4796100 0.3 1026243
27 january, wed
wed2700:00−12s3696100 0.6 1023178
03:00−3sw41097100 0.8 1021447
06:00−2wsw61192100 1.7 1020712
09:00−5w61192100 0.1 1021517
12:00−4w51091100 0.2 1021640
15:00−3w5994100 0.1 1022611
18:00−3w3895100 0.3 1023484
21:00−4w3796100 0.1 1025372
28 january, thu
thu2800:00−4wsw3696100 0.3 1026249
03:00−7sw3697100 0.1 1025145
06:00−9sw4896100 0.3 1024213
09:00−10sw499699 0.0 1023274
12:00−7sw6129299 0.1 1020480
15:00−2wsw71391100 0.1 1018831
18:00−4wsw51292100 0.1 1017793
21:00−3wsw61296100 1.2 1016784
29 january, fri
fri2900:00−3w51196100 2.9 1016694
03:00−2w51195100 0.6 1017658
06:00−4wnw4109599 0.6 1019433
09:00−4wnw599299 0.1 1021621
12:00−4wnw598999 0.2 1023874
15:00−11nw4792100 0.1 1026439
18:00−18n479397 0.1 1030186
21:00−25ne379411 0.0 1034170